Time,TemperatureF,DewpointF,PressureIn,WindDirection,WindDirectionDegrees,WindSpeedMPH,WindSpeedGustMPH,Humidity,HourlyPrecipIn,Conditions,Clouds,dailyrainin,SoftwareType,DateUTC
2013-09-22 00:04:00,65.3,50.6,29.32,North,0,0.0,0.0,59,0.00,,BKN,0.00,VWS V14.01,2013-09-22 05:04:00,
2013-09-22 00:09:00,65.3,51.1,29.32,North,0,0.0,0.0,60,0.00,,BKN,0.00,VWS V14.01,2013-09-22 05:09:00,
2013-09-22 00:15:00,65.3,50.6,29.32,North,0,0.0,0.0,59,0.00,,BKN,0.00,VWS V14.01,2013-09-22 05:15:00,
2013-09-22 00:20:00,65.1,50.9,29.32,North,0,0.0,0.0,60,0.00,,BKN,0.00,VWS V14.01,2013-09-22 05:20:00,
2013-09-22 00:25:00,64.9,50.7,29.32,North,0,0.0,0.0,60,0.00,,BKN,0.00,VWS V14.01,2013-09-22 05:25:00,
2013-09-22 00:30:00,64.8,51.0,29.32,North,0,0.0,0.0,61,0.00,,BKN,0.00,VWS V14.01,2013-09-22 05:30:00,
2013-09-22 00:35:00,64.4,50.7,29.32,North,0,0.0,0.0,61,0.00,,BKN,0.00,VWS V14.01,2013-09-22 05:35:00,
2013-09-22 00:40:00,64.4,51.1,29.32,North,0,0.0,0.0,62,0.00,,BKN,0.00,VWS V14.01,2013-09-22 05:40:00,
2013-09-22 00:45:00,64.4,51.5,29.32,North,0,0.0,0.0,63,0.00,,BKN,0.00,VWS V14.01,2013-09-22 05:45:00,
2013-09-22 00:50:00,64.4,51.5,29.32,North,0,0.0,0.0,63,0.00,,BKN,0.00,VWS V14.01,2013-09-22 05:50:00,
2013-09-22 00:55:00,64.2,51.8,29.32,North,0,0.0,0.0,64,0.00,,BKN,0.00,VWS V14.01,2013-09-22 05:55:00,
2013-09-22 01:00:00,64.2,51.8,29.32,North,0,0.0,0.0,64,0.00,,BKN,0.00,VWS V14.01,2013-09-22 06:00:00,
2013-09-22 01:05:00,64.0,51.6,29.32,North,0,0.0,0.0,64,0.00,,BKN,0.00,VWS V14.01,2013-09-22 06:05:00,
2013-09-22 01:11:00,63.9,51.9,29.32,North,0,0.0,0.0,65,0.00,,BKN,0.00,VWS V14.01,2013-09-22 06:11:00,
2013-09-22 01:16:00,63.9,51.9,29.32,North,0,0.0,0.0,65,0.00,,BKN,0.00,VWS V14.01,2013-09-22 06:16:00,
2013-09-22 01:21:00,63.7,51.7,29.32,North,0,0.0,0.0,65,0.00,,BKN,0.00,VWS V14.01,2013-09-22 06:21:00,
2013-09-22 01:26:00,63.5,51.5,29.32,North,0,0.0,0.0,65,0.00,,BKN,0.00,VWS V14.01,2013-09-22 06:26:00,
2013-09-22 01:31:00,63.3,51.8,29.32,North,0,0.0,0.0,66,0.00,,BKN,0.00,VWS V14.01,2013-09-22 06:31:00,
2013-09-22 01:36:00,63.1,51.6,29.32,North,0,0.0,0.0,66,0.00,,BKN,0.00,VWS V14.01,2013-09-22 06:36:00,
2013-09-22 01:41:00,63.1,51.6,29.32,North,0,0.0,0.0,66,0.00,,BKN,0.00,VWS V14.01,2013-09-22 06:41:00,
2013-09-22 01:47:00,63.0,51.4,29.32,North,0,0.0,0.0,66,0.00,,BKN,0.00,VWS V14.01,2013-09-22 06:47:00,
2013-09-22 01:52:00,63.0,51.8,29.32,North,0,0.0,0.0,67,0.00,,BKN,0.00,VWS V14.01,2013-09-22 06:52:00,
2013-09-22 01:57:00,62.8,51.7,29.32,North,0,0.0,0.0,67,0.00,,BKN,0.00,VWS V14.01,2013-09-22 06:57:00,
2013-09-22 02:02:00,62.6,51.5,29.32,North,0,0.0,0.0,67,0.00,,BKN,0.00,VWS V14.01,2013-09-22 07:02:00,
2013-09-22 02:07:00,62.6,51.9,29.32,North,0,0.0,0.0,68,0.00,,BKN,0.00,VWS V14.01,2013-09-22 07:07:00,
2013-09-22 02:12:00,62.6,51.9,29.32,North,0,0.0,0.0,68,0.00,,BKN,0.00,VWS V14.01,2013-09-22 07:12:00,
2013-09-22 02:17:00,62.6,51.9,29.32,North,0,0.0,0.0,68,0.00,,BKN,0.00,VWS V14.01,2013-09-22 07:17:00,
2013-09-22 02:22:00,62.6,51.9,29.32,North,0,0.0,0.0,68,0.00,,BKN,0.00,VWS V14.01,2013-09-22 07:22:00,
2013-09-22 02:27:00,62.6,51.9,29.32,North,0,0.0,0.0,68,0.00,,BKN,0.00,VWS V14.01,2013-09-22 07:27:00,
2013-09-22 02:33:00,62.4,52.1,29.32,North,0,0.0,0.0,69,0.00,,BKN,0.00,VWS V14.01,2013-09-22 07:33:00,
2013-09-22 02:38:00,62.4,52.1,29.32,North,0,0.0,0.0,69,0.00,,BKN,0.00,VWS V14.01,2013-09-22 07:38:00,
2013-09-22 02:43:00,62.2,52.0,29.32,North,0,0.0,0.0,69,0.00,,BKN,0.00,VWS V14.01,2013-09-22 07:43:00,
2013-09-22 02:48:00,62.2,52.0,29.32,North,0,0.0,0.0,69,0.00,,BKN,0.00,VWS V14.01,2013-09-22 07:48:00,
2013-09-22 02:53:00,62.1,52.2,29.32,North,0,0.0,0.0,70,0.00,,BKN,0.00,VWS V14.01,2013-09-22 07:53:00,
2013-09-22 02:58:00,62.1,52.2,29.32,North,0,0.0,0.0,70,0.00,,BKN,0.00,VWS V14.01,2013-09-22 07:58:00,
2013-09-22 03:03:00,61.9,52.0,29.32,North,0,0.0,0.0,70,0.00,,BKN,0.00,VWS V14.01,2013-09-22 08:03:00,
2013-09-22 03:09:00,61.7,51.8,29.32,North,0,0.0,0.0,70,0.00,,BKN,0.00,VWS V14.01,2013-09-22 08:09:00,
2013-09-22 03:14:00,61.7,51.8,29.32,North,0,0.0,0.0,70,0.00,,BKN,0.00,VWS V14.01,2013-09-22 08:14:00,
2013-09-22 03:19:00,61.5,52.0,29.32,North,0,0.0,0.0,71,0.00,,BKN,0.00,VWS V14.01,2013-09-22 08:19:00,
2013-09-22 03:24:00,61.5,52.0,29.32,North,0,0.0,0.0,71,0.00,,BKN,0.00,VWS V14.01,2013-09-22 08:24:00,
2013-09-22 03:29:00,61.5,52.0,29.32,North,0,0.0,0.0,71,0.00,,BKN,0.00,VWS V14.01,2013-09-22 08:29:00,
2013-09-22 03:34:00,61.3,51.9,29.32,North,0,0.0,0.0,71,0.00,,BKN,0.00,VWS V14.01,2013-09-22 08:34:00,
2013-09-22 03:39:00,61.3,51.9,29.32,North,0,0.0,0.0,71,0.00,,BKN,0.00,VWS V14.01,2013-09-22 08:39:00,
2013-09-22 03:44:00,61.2,51.7,29.32,North,0,0.0,0.0,71,0.00,,BKN,0.00,VWS V14.01,2013-09-22 08:44:00,
2013-09-22 03:49:00,61.2,52.1,29.32,North,0,0.0,0.0,72,0.00,,BKN,0.00,VWS V14.01,2013-09-22 08:49:00,
2013-09-22 03:54:00,61.0,51.9,29.32,North,0,0.0,0.0,72,0.00,,BKN,0.00,VWS V14.01,2013-09-22 08:54:00,
2013-09-22 03:59:00,61.0,51.9,29.32,North,0,0.0,0.0,72,0.00,,BKN,0.00,VWS V14.01,2013-09-22 08:59:00,
2013-09-22 04:04:00,61.0,51.9,29.32,North,0,0.0,0.0,72,0.00,,BKN,0.00,VWS V14.01,2013-09-22 09:04:00,
2013-09-22 04:10:00,61.0,51.9,29.32,North,0,0.0,0.0,72,0.00,,BKN,0.00,VWS V14.01,2013-09-22 09:10:00,
2013-09-22 04:15:00,60.8,51.7,29.32,North,0,0.0,0.0,72,0.00,,BKN,0.00,VWS V14.01,2013-09-22 09:15:00,
2013-09-22 04:20:00,60.8,51.7,29.32,North,0,0.0,0.0,72,0.00,,BKN,0.00,VWS V14.01,2013-09-22 09:20:00,
2013-09-22 04:25:00,60.8,52.1,29.32,North,0,0.0,0.0,73,0.00,,BKN,0.00,VWS V14.01,2013-09-22 09:25:00,
2013-09-22 04:30:00,60.6,51.9,29.32,North,0,0.0,0.0,73,0.00,,BKN,0.00,VWS V14.01,2013-09-22 09:30:00,
2013-09-22 04:35:00,60.6,51.9,29.32,North,0,0.0,0.0,73,0.00,,BKN,0.00,VWS V14.01,2013-09-22 09:35:00,
2013-09-22 04:40:00,60.4,51.8,29.32,North,0,0.0,0.0,73,0.00,,BKN,0.00,VWS V14.01,2013-09-22 09:40:00,
2013-09-22 04:45:00,60.4,51.8,29.32,North,0,0.0,0.0,73,0.00,,BKN,0.00,VWS V14.01,2013-09-22 09:45:00,
2013-09-22 04:50:00,60.4,51.8,29.32,North,0,0.0,0.0,73,0.00,,BKN,0.00,VWS V14.01,2013-09-22 09:50:00,
2013-09-22 04:55:00,60.4,51.8,29.32,North,0,0.0,0.0,73,0.00,,BKN,0.00,VWS V14.01,2013-09-22 09:55:00,
2013-09-22 05:00:00,60.4,51.8,29.32,North,0,0.0,0.0,73,0.00,,BKN,0.00,VWS V14.01,2013-09-22 10:00:00,
2013-09-22 05:05:00,60.3,51.6,29.32,North,0,0.0,0.0,73,0.00,,BKN,0.00,VWS V14.01,2013-09-22 10:05:00,
2013-09-22 05:10:00,60.3,52.0,29.32,North,0,0.0,0.0,74,0.00,,BKN,0.00,VWS V14.01,2013-09-22 10:10:00,
2013-09-22 05:15:00,60.3,52.0,29.32,North,0,0.0,0.0,74,0.00,,BKN,0.00,VWS V14.01,2013-09-22 10:15:00,
2013-09-22 05:20:00,60.1,51.8,29.32,North,0,0.0,0.0,74,0.00,,BKN,0.00,VWS V14.01,2013-09-22 10:20:00,
2013-09-22 05:25:00,59.9,51.6,29.32,North,0,0.0,0.0,74,0.00,,BKN,0.00,VWS V14.01,2013-09-22 10:25:00,
2013-09-22 05:31:00,59.9,51.6,29.32,North,0,0.0,0.0,74,0.00,,BKN,0.00,VWS V14.01,2013-09-22 10:31:00,
2013-09-22 05:36:00,59.7,51.4,29.32,North,0,0.0,0.0,74,0.00,,BKN,0.00,VWS V14.01,2013-09-22 10:36:00,
2013-09-22 05:41:00,59.7,51.4,29.32,North,0,0.0,0.0,74,0.00,,BKN,0.00,VWS V14.01,2013-09-22 10:41:00,
2013-09-22 05:46:00,59.7,51.4,29.32,North,0,0.0,0.0,74,0.00,,BKN,0.00,VWS V14.01,2013-09-22 10:46:00,
2013-09-22 05:51:00,59.5,51.3,29.32,North,0,0.0,0.0,74,0.00,,BKN,0.00,VWS V14.01,2013-09-22 10:51:00,
2013-09-22 06:04:00,59.5,51.6,29.32,North,0,0.0,0.0,75,0.00,,BKN,0.00,VWS V14.01,2013-09-22 11:04:00,
2013-09-22 06:09:00,59.4,51.5,29.32,North,0,0.0,0.0,75,0.00,,BKN,0.00,VWS V14.01,2013-09-22 11:09:00,
2013-09-22 06:14:00,59.4,51.5,29.32,North,0,0.0,0.0,75,0.00,,BKN,0.00,VWS V14.01,2013-09-22 11:14:00,
2013-09-22 06:19:00,59.4,51.5,29.32,North,0,0.0,0.0,75,0.00,,BKN,0.00,VWS V14.01,2013-09-22 11:19:00,
2013-09-22 06:24:00,59.4,51.5,29.32,North,0,0.0,0.0,75,0.00,,BKN,0.00,VWS V14.01,2013-09-22 11:24:00,
2013-09-22 06:29:00,59.2,51.3,29.32,North,0,0.0,0.0,75,0.00,,BKN,0.00,VWS V14.01,2013-09-22 11:29:00,
2013-09-22 06:34:00,59.2,51.3,29.32,North,0,0.0,0.0,75,0.00,,BKN,0.00,VWS V14.01,2013-09-22 11:34:00,
2013-09-22 06:39:00,59.2,51.3,29.32,North,0,0.0,0.0,75,0.00,,BKN,0.00,VWS V14.01,2013-09-22 11:39:00,
2013-09-22 06:44:00,59.0,51.1,29.32,North,0,0.0,0.0,75,0.00,,BKN,0.00,VWS V14.01,2013-09-22 11:44:00,
2013-09-22 06:49:00,59.0,51.5,29.35,North,0,0.0,0.0,76,0.00,,BKN,0.00,VWS V14.01,2013-09-22 11:49:00,
2013-09-22 06:54:00,59.0,51.5,29.35,North,0,0.0,0.0,76,0.00,,BKN,0.00,VWS V14.01,2013-09-22 11:54:00,
2013-09-22 06:59:00,59.0,51.5,29.35,North,0,0.0,0.0,76,0.00,,BKN,0.00,VWS V14.01,2013-09-22 11:59:00,
2013-09-22 07:05:00,59.0,51.5,29.35,North,0,0.0,0.0,76,0.00,,BKN,0.00,VWS V14.01,2013-09-22 12:05:00,
2013-09-22 07:10:00,59.0,51.5,29.35,North,0,0.0,0.0,76,0.00,,BKN,0.00,VWS V14.01,2013-09-22 12:10:00,
2013-09-22 07:15:00,59.2,51.6,29.35,North,0,0.0,0.0,76,0.00,,BKN,0.00,VWS V14.01,2013-09-22 12:15:00,
2013-09-22 07:20:00,59.2,51.6,29.35,North,0,0.0,0.0,76,0.00,,BKN,0.00,VWS V14.01,2013-09-22 12:20:00,
2013-09-22 07:25:00,59.2,51.6,29.35,North,0,0.0,0.0,76,0.00,,BKN,0.00,VWS V14.01,2013-09-22 12:25:00,
2013-09-22 07:30:00,59.2,52.0,29.35,North,0,0.0,0.0,77,0.00,,BKN,0.00,VWS V14.01,2013-09-22 12:30:00,
2013-09-22 07:35:00,59.2,52.0,29.35,North,0,0.0,0.0,77,0.00,,BKN,0.00,VWS V14.01,2013-09-22 12:35:00,
2013-09-22 07:40:00,59.2,52.0,29.35,North,0,0.0,0.0,77,0.00,,BKN,0.00,VWS V14.01,2013-09-22 12:40:00,
2013-09-22 07:45:00,59.2,52.0,29.35,North,0,0.0,0.0,77,0.00,,BKN,0.00,VWS V14.01,2013-09-22 12:45:00,
2013-09-22 07:51:00,59.7,52.9,29.35,North,0,0.0,0.0,78,0.00,,BKN,0.00,VWS V14.01,2013-09-22 12:51:00,
2013-09-22 07:56:00,60.6,54.1,29.35,North,0,0.0,0.0,79,0.00,,BKN,0.00,VWS V14.01,2013-09-22 12:56:00,
2013-09-22 08:01:00,61.0,54.4,29.35,North,0,0.0,0.0,79,0.00,,BKN,0.00,VWS V14.01,2013-09-22 13:01:00,
2013-09-22 08:06:00,61.3,55.1,29.35,North,0,0.0,0.0,80,0.00,,BKN,0.00,VWS V14.01,2013-09-22 13:06:00,
2013-09-22 08:11:00,61.5,55.3,29.35,North,0,0.0,0.0,80,0.00,,BKN,0.00,VWS V14.01,2013-09-22 13:11:00,
2013-09-22 08:16:00,61.5,55.6,29.35,North,0,0.0,0.0,81,0.00,,BKN,0.00,VWS V14.01,2013-09-22 13:16:00,
2013-09-22 08:22:00,61.5,55.6,29.35,North,0,0.0,0.0,81,0.00,,BKN,0.00,VWS V14.01,2013-09-22 13:22:00,
2013-09-22 08:27:00,61.5,56.0,29.35,North,0,0.0,0.0,82,0.00,,BKN,0.00,VWS V14.01,2013-09-22 13:27:00,
2013-09-22 08:32:00,61.7,56.5,29.35,North,0,0.0,0.0,83,0.00,,BKN,0.00,VWS V14.01,2013-09-22 13:32:00,
2013-09-22 08:37:00,61.9,56.7,29.35,North,0,0.0,0.0,83,0.00,,BKN,0.00,VWS V14.01,2013-09-22 13:37:00,
2013-09-22 08:42:00,62.4,57.2,29.35,North,0,0.0,0.0,83,0.00,,BKN,0.00,VWS V14.01,2013-09-22 13:42:00,
2013-09-22 08:47:00,62.6,57.4,29.35,North,0,0.0,0.0,83,0.00,,BKN,0.00,VWS V14.01,2013-09-22 13:47:00,
2013-09-22 08:52:00,62.8,57.5,29.38,North,0,0.0,0.0,83,0.00,,BKN,0.00,VWS V14.01,2013-09-22 13:52:00,
2013-09-22 08:58:00,63.1,57.9,29.38,North,0,0.0,0.0,83,0.00,,BKN,0.00,VWS V14.01,2013-09-22 13:58:00,
2013-09-22 09:03:00,63.5,58.2,29.38,North,0,0.0,0.0,83,0.00,,BKN,0.00,VWS V14.01,2013-09-22 14:03:00,
2013-09-22 09:08:00,63.9,58.3,29.38,North,0,0.0,0.0,82,0.00,,BKN,0.00,VWS V14.01,2013-09-22 14:08:00,
2013-09-22 09:13:00,64.2,58.3,29.38,North,0,0.0,0.0,81,0.00,,BKN,0.00,VWS V14.01,2013-09-22 14:13:00,
2013-09-22 09:18:00,64.8,58.1,29.38,North,0,0.0,0.0,79,0.00,,BKN,0.00,VWS V14.01,2013-09-22 14:18:00,
2013-09-22 09:23:00,64.9,57.9,29.38,North,0,0.0,0.0,78,0.00,,BKN,0.00,VWS V14.01,2013-09-22 14:23:00,
2013-09-22 09:28:00,65.8,57.3,29.38,North,0,0.0,0.0,74,0.00,,BKN,0.00,VWS V14.01,2013-09-22 14:28:00,
2013-09-22 09:34:00,66.2,56.5,29.38,North,0,0.0,0.0,71,0.00,,BKN,0.00,VWS V14.01,2013-09-22 14:34:00,
2013-09-22 09:39:00,66.7,56.3,29.38,North,0,0.0,0.0,69,0.00,,BKN,0.00,VWS V14.01,2013-09-22 14:39:00,
2013-09-22 09:44:00,67.3,56.0,29.38,North,0,0.0,0.0,67,0.00,,BKN,0.00,VWS V14.01,2013-09-22 14:44:00,
2013-09-22 09:49:00,67.8,56.1,29.38,North,0,0.0,0.0,66,0.00,,BKN,0.00,VWS V14.01,2013-09-22 14:49:00,
2013-09-22 09:54:00,68.4,55.7,29.38,North,0,0.0,0.0,64,0.00,,BKN,0.00,VWS V14.01,2013-09-22 14:54:00,
2013-09-22 09:59:00,68.7,54.7,29.38,North,0,0.0,0.0,61,0.00,,BKN,0.00,VWS V14.01,2013-09-22 14:59:00,
2013-09-22 10:04:00,69.1,55.1,29.38,North,0,0.0,0.0,61,0.00,,BKN,0.00,VWS V14.01,2013-09-22 15:04:00,
2013-09-22 10:10:00,69.6,53.7,29.38,North,0,0.0,0.0,57,0.00,,BKN,0.00,VWS V14.01,2013-09-22 15:10:00,
2013-09-22 10:15:00,70.2,53.3,29.38,North,0,0.0,0.0,55,0.00,,BKN,0.00,VWS V14.01,2013-09-22 15:15:00,
2013-09-22 10:20:00,70.9,53.9,29.38,North,0,0.0,0.0,55,0.00,,BKN,0.00,VWS V14.01,2013-09-22 15:20:00,
2013-09-22 10:25:00,71.4,51.3,29.38,North,0,0.0,0.0,49,0.00,,BKN,0.00,VWS V14.01,2013-09-22 15:25:00,
2013-09-22 10:30:00,72.1,50.8,29.38,North,0,0.0,0.0,47,0.00,,BKN,0.00,VWS V14.01,2013-09-22 15:30:00,
2013-09-22 10:35:00,72.5,50.0,29.38,North,0,0.0,0.0,45,0.00,,BKN,0.00,VWS V14.01,2013-09-22 15:35:00,
2013-09-22 10:40:00,73.0,50.5,29.38,North,0,0.0,0.0,45,0.00,,BKN,0.00,VWS V14.01,2013-09-22 15:40:00,
2013-09-22 10:46:00,73.6,49.7,29.38,North,0,0.0,0.0,43,0.00,,BKN,0.00,VWS V14.01,2013-09-22 15:46:00,
2013-09-22 10:51:00,73.9,50.7,29.38,North,0,0.0,0.0,44,0.00,,BKN,0.00,VWS V14.01,2013-09-22 15:51:00,
2013-09-22 10:56:00,74.3,49.8,29.38,North,0,0.0,0.0,42,0.00,,BKN,0.00,VWS V14.01,2013-09-22 15:56:00,
2013-09-22 11:01:00,74.5,50.5,29.38,North,0,0.0,0.0,43,0.00,,BKN,0.00,VWS V14.01,2013-09-22 16:01:00,
2013-09-22 11:06:00,74.7,49.4,29.38,North,0,0.0,0.0,41,0.00,,BKN,0.00,VWS V14.01,2013-09-22 16:06:00,
2013-09-22 11:11:00,75.2,50.6,29.38,North,0,0.0,0.0,42,0.00,,BKN,0.00,VWS V14.01,2013-09-22 16:11:00,
2013-09-22 11:16:00,75.7,49.7,29.38,North,0,0.0,0.0,40,0.00,,BKN,0.00,VWS V14.01,2013-09-22 16:16:00,
2013-09-22 11:21:00,75.9,50.5,29.38,North,0,0.0,0.0,41,0.00,,BKN,0.00,VWS V14.01,2013-09-22 16:21:00,
2013-09-22 11:26:00,76.1,49.4,29.38,North,0,0.0,0.0,39,0.00,,BKN,0.00,VWS V14.01,2013-09-22 16:26:00,
2013-09-22 11:32:00,76.5,51.7,29.38,North,0,0.0,0.0,42,0.00,,BKN,0.00,VWS V14.01,2013-09-22 16:32:00,
2013-09-22 11:37:00,76.6,50.5,29.38,North,0,0.0,0.0,40,0.00,,BKN,0.00,VWS V14.01,2013-09-22 16:37:00,
2013-09-22 11:42:00,76.8,50.7,29.38,North,0,0.0,0.0,40,0.00,,BKN,0.00,VWS V14.01,2013-09-22 16:42:00,
2013-09-22 11:47:00,77.2,49.6,29.38,North,0,0.0,0.0,38,0.00,,BKN,0.00,VWS V14.01,2013-09-22 16:47:00,
2013-09-22 11:52:00,77.7,49.4,29.38,North,0,0.0,0.0,37,0.00,,BKN,0.00,VWS V14.01,2013-09-22 16:52:00,
2013-09-22 11:57:00,77.7,48.7,29.38,North,0,0.0,0.0,36,0.00,,BKN,0.00,VWS V14.01,2013-09-22 16:57:00,
2013-09-22 12:03:00,77.9,49.6,29.38,North,0,0.0,0.0,37,0.00,,BKN,0.00,VWS V14.01,2013-09-22 17:03:00,
2013-09-22 12:08:00,78.1,48.2,29.38,North,0,0.0,0.0,35,0.00,,BKN,0.00,VWS V14.01,2013-09-22 17:08:00,
2013-09-22 12:13:00,78.3,49.1,29.38,North,0,0.0,0.0,36,0.00,,BKN,0.00,VWS V14.01,2013-09-22 17:13:00,
2013-09-22 12:18:00,78.8,48.9,29.38,North,0,0.0,0.0,35,0.00,,BKN,0.00,VWS V14.01,2013-09-22 17:18:00,
2013-09-22 12:23:00,78.8,48.9,29.38,North,0,0.0,0.0,35,0.00,,BKN,0.00,VWS V14.01,2013-09-22 17:23:00,
2013-09-22 12:28:00,79.0,46.6,29.38,North,0,0.0,0.0,32,0.00,,BKN,0.00,VWS V14.01,2013-09-22 17:28:00,
2013-09-22 12:33:00,78.8,47.3,29.35,North,0,0.0,0.0,33,0.00,,BKN,0.00,VWS V14.01,2013-09-22 17:33:00,
2013-09-22 12:39:00,78.6,47.9,29.35,North,0,0.0,0.0,34,0.00,,BKN,0.00,VWS V14.01,2013-09-22 17:39:00,
2013-09-22 12:44:00,79.0,46.6,29.35,North,0,0.0,0.0,32,0.00,,BKN,0.00,VWS V14.01,2013-09-22 17:44:00,
2013-09-22 12:49:00,78.8,46.5,29.35,North,0,0.0,0.0,32,0.00,,BKN,0.00,VWS V14.01,2013-09-22 17:49:00,
2013-09-22 12:54:00,78.8,47.3,29.35,North,0,0.0,0.0,33,0.00,,BKN,0.00,VWS V14.01,2013-09-22 17:54:00,
2013-09-22 12:59:00,78.8,47.3,29.35,North,0,0.0,0.0,33,0.00,,BKN,0.00,VWS V14.01,2013-09-22 17:59:00,
2013-09-22 13:04:00,79.2,46.8,29.35,North,0,0.0,0.0,32,0.00,,BKN,0.00,VWS V14.01,2013-09-22 18:04:00,
2013-09-22 13:10:00,79.5,46.3,29.35,North,0,0.0,0.0,31,0.00,,BKN,0.00,VWS V14.01,2013-09-22 18:10:00,
2013-09-22 13:15:00,79.5,46.3,29.35,North,0,0.0,0.0,31,0.00,,BKN,0.00,VWS V14.01,2013-09-22 18:15:00,
2013-09-22 13:20:00,79.7,46.4,29.35,North,0,0.0,0.0,31,0.00,,BKN,0.00,VWS V14.01,2013-09-22 18:20:00,
2013-09-22 13:25:00,79.9,45.7,29.35,North,0,0.0,0.0,30,0.00,,BKN,0.00,VWS V14.01,2013-09-22 18:25:00,
2013-09-22 13:30:00,80.4,46.2,29.35,North,0,0.0,0.0,30,0.00,,BKN,0.00,VWS V14.01,2013-09-22 18:30:00,
2013-09-22 13:35:00,80.6,46.3,29.35,North,0,0.0,0.0,30,0.00,,BKN,0.00,VWS V14.01,2013-09-22 18:35:00,
2013-09-22 13:40:00,81.3,47.0,29.35,North,0,0.0,0.0,30,0.00,,BKN,0.00,VWS V14.01,2013-09-22 18:40:00,
2013-09-22 13:46:00,81.3,47.0,29.35,North,0,0.0,0.0,30,0.00,,BKN,0.00,VWS V14.01,2013-09-22 18:46:00,
2013-09-22 13:51:00,81.3,47.0,29.32,North,0,0.0,0.0,30,0.00,,BKN,0.00,VWS V14.01,2013-09-22 18:51:00,
2013-09-22 13:56:00,81.5,47.1,29.32,North,0,0.0,0.0,30,0.00,,BKN,0.00,VWS V14.01,2013-09-22 18:56:00,
2013-09-22 14:01:00,81.7,47.3,29.32,North,0,0.0,0.0,30,0.00,,BKN,0.00,VWS V14.01,2013-09-22 19:01:00,
2013-09-22 14:06:00,82.0,47.6,29.32,North,0,0.0,0.0,30,0.00,,BKN,0.00,VWS V14.01,2013-09-22 19:06:00,
2013-09-22 14:11:00,82.0,47.6,29.32,North,0,0.0,0.0,30,0.00,,BKN,0.00,VWS V14.01,2013-09-22 19:11:00,
2013-09-22 14:17:00,82.0,46.7,29.32,North,0,0.0,0.0,29,0.00,,BKN,0.00,VWS V14.01,2013-09-22 19:17:00,
2013-09-22 14:22:00,82.2,46.8,29.32,North,0,0.0,0.0,29,0.00,,BKN,0.00,VWS V14.01,2013-09-22 19:22:00,
2013-09-22 14:27:00,81.9,46.5,29.32,North,0,0.0,0.0,29,0.00,,BKN,0.00,VWS V14.01,2013-09-22 19:27:00,
2013-09-22 14:32:00,82.0,44.8,29.32,North,0,0.0,0.0,27,0.00,,BKN,0.00,VWS V14.01,2013-09-22 19:32:00,
2013-09-22 14:37:00,82.0,44.8,29.32,North,0,0.0,0.0,27,0.00,,BKN,0.00,VWS V14.01,2013-09-22 19:37:00,
2013-09-22 14:42:00,82.0,43.8,29.32,North,0,0.0,0.0,26,0.00,,BKN,0.00,VWS V14.01,2013-09-22 19:42:00,
2013-09-22 14:47:00,82.4,45.1,29.32,North,0,0.0,0.0,27,0.00,,BKN,0.00,VWS V14.01,2013-09-22 19:47:00,
2013-09-22 14:53:00,82.4,44.1,29.29,North,0,0.0,0.0,26,0.00,,BKN,0.00,VWS V14.01,2013-09-22 19:53:00,
2013-09-22 14:58:00,82.6,43.2,29.29,North,0,0.0,0.0,25,0.00,,BKN,0.00,VWS V14.01,2013-09-22 19:58:00,
2013-09-22 15:03:00,82.8,42.3,29.29,North,0,0.0,0.0,24,0.00,,BKN,0.00,VWS V14.01,2013-09-22 20:03:00,
2013-09-22 15:08:00,82.6,44.3,29.29,North,0,0.0,0.0,26,0.00,,BKN,0.00,VWS V14.01,2013-09-22 20:08:00,
2013-09-22 15:14:00,82.8,41.2,29.29,North,0,0.0,0.0,23,0.00,,BKN,0.00,VWS V14.01,2013-09-22 20:14:00,
2013-09-22 15:19:00,82.9,42.5,29.29,North,0,0.0,0.0,24,0.00,,BKN,0.00,VWS V14.01,2013-09-22 20:19:00,
2013-09-22 15:24:00,83.3,41.7,29.29,North,0,0.0,0.0,23,0.00,,BKN,0.00,VWS V14.01,2013-09-22 20:24:00,
2013-09-22 15:29:00,83.1,40.4,29.29,North,0,0.0,0.0,22,0.00,,BKN,0.00,VWS V14.01,2013-09-22 20:29:00,
2013-09-22 15:34:00,83.3,40.5,29.29,North,0,0.0,0.0,22,0.00,,BKN,0.00,VWS V14.01,2013-09-22 20:34:00,
2013-09-22 15:39:00,83.7,42.0,29.29,North,0,0.0,0.0,23,0.00,,BKN,0.00,VWS V14.01,2013-09-22 20:39:00,
2013-09-22 15:45:00,84.0,43.4,29.29,North,0,0.0,0.0,24,0.00,,BKN,0.00,VWS V14.01,2013-09-22 20:45:00,
2013-09-22 15:50:00,84.2,42.4,29.29,North,0,0.0,0.0,23,0.00,,BKN,0.00,VWS V14.01,2013-09-22 20:50:00,
2013-09-22 15:55:00,84.0,41.1,29.29,North,0,0.0,0.0,22,0.00,,BKN,0.00,VWS V14.01,2013-09-22 20:55:00,
2013-09-22 16:00:00,84.0,41.1,29.29,North,0,0.0,0.0,22,0.00,,BKN,0.00,VWS V14.01,2013-09-22 21:00:00,
2013-09-22 16:05:00,83.8,42.1,29.26,North,0,0.0,0.0,23,0.00,,BKN,0.00,VWS V14.01,2013-09-22 21:05:00,
2013-09-22 16:10:00,84.2,42.4,29.26,North,0,0.0,0.0,23,0.00,,BKN,0.00,VWS V14.01,2013-09-22 21:10:00,
2013-09-22 16:16:00,84.2,41.3,29.26,North,0,0.0,0.0,22,0.00,,BKN,0.00,VWS V14.01,2013-09-22 21:16:00,
2013-09-22 16:21:00,84.0,42.3,29.26,North,0,0.0,0.0,23,0.00,,BKN,0.00,VWS V14.01,2013-09-22 21:21:00,
2013-09-22 16:26:00,84.2,42.4,29.26,North,0,0.0,0.0,23,0.00,,BKN,0.00,VWS V14.01,2013-09-22 21:26:00,
2013-09-22 16:31:00,84.0,42.3,29.26,North,0,0.0,0.0,23,0.00,,BKN,0.00,VWS V14.01,2013-09-22 21:31:00,
2013-09-22 16:36:00,84.0,43.4,29.26,North,0,0.0,0.0,24,0.00,,BKN,0.00,VWS V14.01,2013-09-22 21:36:00,
2013-09-22 16:41:00,84.0,42.3,29.26,North,0,0.0,0.0,23,0.00,,BKN,0.00,VWS V14.01,2013-09-22 21:41:00,
2013-09-22 16:46:00,84.0,41.1,29.26,North,0,0.0,0.0,22,0.00,,BKN,0.00,VWS V14.01,2013-09-22 21:46:00,
2013-09-22 16:52:00,84.0,42.3,29.26,North,0,0.0,0.0,23,0.00,,BKN,0.00,VWS V14.01,2013-09-22 21:52:00,
2013-09-22 16:57:00,83.8,42.1,29.26,North,0,0.0,0.0,23,0.00,,BKN,0.00,VWS V14.01,2013-09-22 21:57:00,
2013-09-22 17:02:00,83.8,42.1,29.26,North,0,0.0,0.0,23,0.00,,BKN,0.00,VWS V14.01,2013-09-22 22:02:00,
2013-09-22 17:07:00,83.8,42.1,29.26,North,0,0.0,0.0,23,0.00,,BKN,0.00,VWS V14.01,2013-09-22 22:07:00,
2013-09-22 17:12:00,83.7,42.0,29.26,North,0,0.0,0.0,23,0.00,,BKN,0.00,VWS V14.01,2013-09-22 22:12:00,
2013-09-22 17:18:00,83.8,42.1,29.26,North,0,0.0,0.0,23,0.00,,BKN,0.00,VWS V14.01,2013-09-22 22:18:00,
2013-09-22 17:23:00,83.8,42.1,29.26,North,0,0.0,0.0,23,0.00,,BKN,0.00,VWS V14.01,2013-09-22 22:23:00,
2013-09-22 17:28:00,83.7,42.0,29.26,North,0,0.0,0.0,23,0.00,,BKN,0.00,VWS V14.01,2013-09-22 22:28:00,
2013-09-22 17:33:00,83.7,42.0,29.26,North,0,0.0,0.0,23,0.00,,BKN,0.00,VWS V14.01,2013-09-22 22:33:00,
2013-09-22 17:38:00,83.5,41.8,29.23,North,0,0.0,0.0,23,0.00,,BKN,0.00,VWS V14.01,2013-09-22 22:38:00,
2013-09-22 17:43:00,83.1,41.5,29.23,North,0,0.0,0.0,23,0.00,,BKN,0.00,VWS V14.01,2013-09-22 22:43:00,
2013-09-22 17:49:00,82.9,41.4,29.23,North,0,0.0,0.0,23,0.00,,BKN,0.00,VWS V14.01,2013-09-22 22:49:00,
2013-09-22 17:54:00,82.9,41.4,29.23,North,0,0.0,0.0,23,0.00,,BKN,0.00,VWS V14.01,2013-09-22 22:54:00,
2013-09-22 17:59:00,82.8,42.3,29.23,North,0,0.0,0.0,24,0.00,,BKN,0.00,VWS V14.01,2013-09-22 22:59:00,
2013-09-22 18:04:00,82.8,42.3,29.23,North,0,0.0,0.0,24,0.00,,BKN,0.00,VWS V14.01,2013-09-22 23:04:00,
2013-09-22 18:09:00,82.4,42.0,29.26,North,0,0.0,0.0,24,0.00,,BKN,0.00,VWS V14.01,2013-09-22 23:09:00,
2013-09-22 18:15:00,82.0,42.8,29.26,North,0,0.0,0.0,25,0.00,,BKN,0.00,VWS V14.01,2013-09-22 23:15:00,
2013-09-22 18:20:00,81.9,41.6,29.23,North,0,0.0,0.0,24,0.00,,BKN,0.00,VWS V14.01,2013-09-22 23:20:00,
2013-09-22 18:25:00,81.5,41.3,29.23,North,0,0.0,0.0,24,0.00,,BKN,0.00,VWS V14.01,2013-09-22 23:25:00,
2013-09-22 18:30:00,81.3,43.2,29.23,North,0,0.0,0.0,26,0.00,,BKN,0.00,VWS V14.01,2013-09-22 23:30:00,
2013-09-22 18:35:00,81.0,40.8,29.23,North,0,0.0,0.0,24,0.00,,BKN,0.00,VWS V14.01,2013-09-22 23:35:00,
2013-09-22 18:40:00,80.6,41.6,29.23,North,0,0.0,0.0,25,0.00,,BKN,0.00,VWS V14.01,2013-09-22 23:40:00,
2013-09-22 18:45:00,80.4,42.4,29.23,North,0,0.0,0.0,26,0.00,,BKN,0.00,VWS V14.01,2013-09-22 23:45:00,
2013-09-22 18:50:00,80.1,43.1,29.23,North,0,0.0,0.0,27,0.00,,BKN,0.00,VWS V14.01,2013-09-22 23:50:00,
2013-09-22 18:55:00,79.7,42.8,29.23,North,0,0.0,0.0,27,0.00,,BKN,0.00,VWS V14.01,2013-09-22 23:55:00,
2013-09-22 19:01:00,79.3,43.4,29.23,North,0,0.0,0.0,28,0.00,,BKN,0.00,VWS V14.01,2013-09-23 00:01:00,
2013-09-22 19:06:00,79.0,44.9,29.23,North,0,0.0,0.0,30,0.00,,BKN,0.00,VWS V14.01,2013-09-23 00:06:00,
2013-09-22 19:11:00,78.4,44.5,29.23,North,0,0.0,0.0,30,0.00,,BKN,0.00,VWS V14.01,2013-09-23 00:11:00,
2013-09-22 19:16:00,78.1,45.0,29.23,North,0,0.0,0.0,31,0.00,,BKN,0.00,VWS V14.01,2013-09-23 00:16:00,
2013-09-22 19:21:00,77.5,44.5,29.23,North,0,0.0,0.0,31,0.00,,BKN,0.00,VWS V14.01,2013-09-23 00:21:00,
2013-09-22 19:27:00,77.2,45.1,29.23,North,0,0.0,0.0,32,0.00,,BKN,0.00,VWS V14.01,2013-09-23 00:27:00,
2013-09-22 19:32:00,76.8,45.6,29.23,North,0,0.0,0.0,33,0.00,,BKN,0.00,VWS V14.01,2013-09-23 00:32:00,
2013-09-22 19:37:00,76.5,45.2,29.23,North,0,0.0,0.0,33,0.00,,BKN,0.00,VWS V14.01,2013-09-23 00:37:00,
2013-09-22 19:42:00,76.1,45.7,29.23,North,0,0.0,0.0,34,0.00,,BKN,0.00,VWS V14.01,2013-09-23 00:42:00,
2013-09-22 19:47:00,75.7,45.4,29.23,North,0,0.0,0.0,34,0.00,,BKN,0.00,VWS V14.01,2013-09-23 00:47:00,
2013-09-22 19:52:00,75.2,45.7,29.23,North,0,0.0,0.0,35,0.00,,BKN,0.00,VWS V14.01,2013-09-23 00:52:00,
2013-09-22 19:57:00,74.8,46.8,29.23,North,0,0.0,0.0,37,0.00,,BKN,0.00,VWS V14.01,2013-09-23 00:57:00,
2013-09-22 20:02:00,74.5,46.5,29.23,North,0,0.0,0.0,37,0.00,,BKN,0.00,VWS V14.01,2013-09-23 01:02:00,
2013-09-22 20:08:00,74.1,46.9,29.26,North,0,0.0,0.0,38,0.00,,BKN,0.00,VWS V14.01,2013-09-23 01:08:00,
2013-09-22 20:13:00,73.8,48.0,29.26,North,0,0.0,0.0,40,0.00,,BKN,0.00,VWS V14.01,2013-09-23 01:13:00,
2013-09-22 20:18:00,73.6,48.5,29.26,North,0,0.0,0.0,41,0.00,,BKN,0.00,VWS V14.01,2013-09-23 01:18:00,
2013-09-22 20:23:00,73.4,48.3,29.26,North,0,0.0,0.0,41,0.00,,BKN,0.00,VWS V14.01,2013-09-23 01:23:00,
2013-09-22 20:28:00,73.2,48.8,29.26,North,0,0.0,0.0,42,0.00,,BKN,0.00,VWS V14.01,2013-09-23 01:28:00,
2013-09-22 20:33:00,72.9,48.5,29.26,North,0,0.0,0.0,42,0.00,,BKN,0.00,VWS V14.01,2013-09-23 01:33:00,
2013-09-22 20:38:00,72.7,48.3,29.26,North,0,0.0,0.0,42,0.00,,BKN,0.00,VWS V14.01,2013-09-23 01:38:00,
2013-09-22 20:43:00,72.5,48.8,29.26,North,0,0.0,0.0,43,0.00,,BKN,0.00,VWS V14.01,2013-09-23 01:43:00,
2013-09-22 20:48:00,72.3,48.6,29.26,North,0,0.0,0.0,43,0.00,,BKN,0.00,VWS V14.01,2013-09-23 01:48:00,
2013-09-22 20:54:00,72.0,48.3,29.26,North,0,0.0,0.0,43,0.00,,BKN,0.00,VWS V14.01,2013-09-23 01:54:00,
2013-09-22 20:59:00,71.8,48.1,29.26,North,0,0.0,0.0,43,0.00,,BKN,0.00,VWS V14.01,2013-09-23 01:59:00,
2013-09-22 21:04:00,71.6,48.6,29.26,North,0,0.0,0.0,44,0.00,,BKN,0.00,VWS V14.01,2013-09-23 02:04:00,
2013-09-22 21:09:00,71.4,48.4,29.26,North,0,0.0,0.0,44,0.00,,BKN,0.00,VWS V14.01,2013-09-23 02:09:00,
2013-09-22 21:14:00,71.2,48.8,29.26,North,0,0.0,0.0,45,0.00,,BKN,0.00,VWS V14.01,2013-09-23 02:14:00,
2013-09-22 21:19:00,71.1,48.7,29.26,North,0,0.0,0.0,45,0.00,,BKN,0.00,VWS V14.01,2013-09-23 02:19:00,
2013-09-22 21:24:00,70.9,48.5,29.26,North,0,0.0,0.0,45,0.00,,BKN,0.00,VWS V14.01,2013-09-23 02:24:00,
2013-09-22 21:29:00,70.7,48.9,29.26,North,0,0.0,0.0,46,0.00,,BKN,0.00,VWS V14.01,2013-09-23 02:29:00,
2013-09-22 21:34:00,70.5,48.8,29.26,North,0,0.0,0.0,46,0.00,,BKN,0.00,VWS V14.01,2013-09-23 02:34:00,
2013-09-22 21:39:00,70.3,49.2,29.26,North,0,0.0,0.0,47,0.00,,BKN,0.00,VWS V14.01,2013-09-23 02:39:00,
2013-09-22 21:45:00,70.2,49.0,29.26,North,0,0.0,0.0,47,0.00,,BKN,0.00,VWS V14.01,2013-09-23 02:45:00,
2013-09-22 21:50:00,70.0,49.4,29.26,North,0,0.0,0.0,48,0.00,,BKN,0.00,VWS V14.01,2013-09-23 02:50:00,
2013-09-22 21:55:00,69.8,49.2,29.26,North,0,0.0,0.0,48,0.00,,BKN,0.00,VWS V14.01,2013-09-23 02:55:00,
2013-09-22 22:00:00,69.6,49.6,29.26,North,0,0.0,0.0,49,0.00,,BKN,0.00,VWS V14.01,2013-09-23 03:00:00,
2013-09-22 22:05:00,69.3,49.8,29.26,North,0,0.0,0.0,50,0.00,,BKN,0.00,VWS V14.01,2013-09-23 03:05:00,
2013-09-22 22:10:00,69.1,49.7,29.26,North,0,0.0,0.0,50,0.00,,BKN,0.00,VWS V14.01,2013-09-23 03:10:00,
2013-09-22 22:15:00,68.9,50.0,29.26,North,0,0.0,0.0,51,0.00,,BKN,0.00,VWS V14.01,2013-09-23 03:15:00,
2013-09-22 22:20:00,68.7,49.9,29.26,North,0,0.0,0.0,51,0.00,,BKN,0.00,VWS V14.01,2013-09-23 03:20:00,
2013-09-22 22:25:00,68.5,50.2,29.26,North,0,0.0,0.0,52,0.00,,BKN,0.00,VWS V14.01,2013-09-23 03:25:00,
2013-09-22 22:30:00,68.4,50.6,29.26,North,0,0.0,0.0,53,0.00,,BKN,0.00,VWS V14.01,2013-09-23 03:30:00,
2013-09-22 22:36:00,68.2,50.4,29.26,North,0,0.0,0.0,53,0.00,,BKN,0.00,VWS V14.01,2013-09-23 03:36:00,
2013-09-22 22:41:00,68.0,50.8,29.26,North,0,0.0,0.0,54,0.00,,BKN,0.00,VWS V14.01,2013-09-23 03:41:00,
2013-09-22 22:46:00,67.8,51.1,29.26,North,0,0.0,0.0,55,0.00,,BKN,0.00,VWS V14.01,2013-09-23 03:46:00,
2013-09-22 22:51:00,67.8,51.1,29.29,North,0,0.0,0.0,55,0.00,,BKN,0.00,VWS V14.01,2013-09-23 03:51:00,
2013-09-22 22:56:00,67.6,51.4,29.29,North,0,0.0,0.0,56,0.00,,BKN,0.00,VWS V14.01,2013-09-23 03:56:00,
2013-09-22 23:01:00,67.5,51.2,29.29,North,0,0.0,0.0,56,0.00,,BKN,0.00,VWS V14.01,2013-09-23 04:01:00,
2013-09-22 23:02:00,67.5,51.2,29.29,North,0,0.0,0.0,56,0.00,,BKN,0.00,VWS V14.01,2013-09-23 04:02:00,
2013-09-22 23:03:00,67.5,51.2,29.29,North,0,0.0,0.0,56,0.00,,BKN,0.00,VWS V14.01,2013-09-23 04:03:00,
2013-09-22 23:08:00,67.3,51.5,29.29,North,0,0.0,0.0,57,0.00,,BKN,0.00,VWS V14.01,2013-09-23 04:08:00,
2013-09-22 23:13:00,67.1,51.4,29.29,North,0,0.0,0.0,57,0.00,,BKN,0.00,VWS V14.01,2013-09-23 04:13:00,
2013-09-22 23:18:00,66.9,51.2,29.29,North,0,0.0,0.0,57,0.00,,BKN,0.00,VWS V14.01,2013-09-23 04:18:00,
2013-09-22 23:24:00,66.9,51.7,29.29,North,0,0.0,0.0,58,0.00,,BKN,0.00,VWS V14.01,2013-09-23 04:24:00,
2013-09-22 23:29:00,66.7,51.5,29.29,North,0,0.0,0.0,58,0.00,,BKN,0.00,VWS V14.01,2013-09-23 04:29:00,
2013-09-22 23:34:00,66.6,51.3,29.29,North,0,0.0,0.0,58,0.00,,BKN,0.00,VWS V14.01,2013-09-23 04:34:00,
2013-09-22 23:39:00,66.6,51.3,29.29,North,0,0.0,0.0,58,0.00,,BKN,0.00,VWS V14.01,2013-09-23 04:39:00,
2013-09-22 23:44:00,66.6,51.3,29.29,North,0,0.0,0.0,58,0.00,,BKN,0.00,VWS V14.01,2013-09-23 04:44:00,
2013-09-22 23:49:00,66.6,51.3,29.29,North,0,0.0,0.0,58,0.00,,BKN,0.00,VWS V14.01,2013-09-23 04:49:00,
2013-09-22 23:54:00,66.4,51.2,29.29,North,0,0.0,0.0,58,0.00,,BKN,0.00,VWS V14.01,2013-09-23 04:54:00,